Location: Eferding
(48.3167°N, 14.0167°E)
Time: 02:28:15
(UTC+00:00)

COSMO-SKYMED 1 - Pass Details

Date: 12 November 2019
Orbit: 621 x 623 km, 97.9° (Epoch: 15 December)

Event Time Altitude Azimuth Distance (km) Brightness Sun altitude
Exits shadow 17:01:24 - 17° (NNE) 2,702 5.6 -15.3°
Reaches altitude 10° 17:03:06 10° 20° (NNE) 2,004 4.9 -15.6°
Maximum altitude 17:07:25 60° 101° (E) 719 2.5 -16.3°
Drops below altitude 10° 17:11:41 10° 181° (S) 1,987 5.3 -17.0°
Sets 17:13:54 0° 185° (S) 2,888 6.2 -17.4°
